Skip Page Navigation
NASA JPL Caltech
NASA Logo - Jet Propulsion Laboratory + View the NASA Portal
+ Center for Near-Earth Object Studies
JPL Home Earth Solar System Stars & Galaxies Technology
JPL Solar System Dynamics
BODIES ORBITS EPHEMERIDES TOOLS PHYSICAL DATA DISCOVERY FAQ SITE MAP
IMPORTANT: The SSD Announcement email list is now available. Major changes are coming in the near future, including possible hostname and/or URL changes. To be notified of such changes, subscribe to this email list.

Please visit this page for more details.


JPL Small-Body Database Browser
Search: [ help ]  
214606 (2006 RE19)
Classification: Main-belt Asteroid          SPK-ID: 2214606
Ephemeris | Orbit Diagram | Orbital Elements | Mission Design | Physical Parameters | Discovery Circumstances | Close-Approach Data ]

[ show orbit diagram ]
Orbital Elements at Epoch 2458600.5 (2019-Apr-27.0) TDB
Reference: JPL 10 (heliocentric ecliptic J2000)
 Element Value Uncertainty (1-sigma)   Units 
e .2430246907952245 4.2822e-08  
a 2.621079214009886 2.0049e-08 au
q 1.984092248475344 1.095e-07 au
i 11.59720827571173 5.9902e-06 deg
node 186.2767402114006 2.7832e-05 deg
peri 200.9471700901169 3.2713e-05 deg
M 341.5063018512609 1.9097e-05 deg
tp 2458680.123251868130
(2019-Jul-15.62325187)
8.2856e-05 TDB
period 1549.95341883426
4.24
1.7783e-05
4.869e-08
d
yr
n .2322650446300255 2.6649e-09 deg/d
Q 3.258066179544429 2.4921e-08 au
  Orbit Determination Parameters
   # obs. used (total)      291  
   data-arc span      6176 days (16.91 yr)  
   first obs. used      2002-11-30  
   last obs. used      2019-10-28  
   planetary ephem.      DE431  
   SB-pert. ephem.      SB431-N16  
   condition code      0  
   norm. resid. RMS      .55944  
   source      ORB  
   producer      Otto Matic  
   solution date      2019-Nov-07 23:54:58  

Additional Information
 Earth MOID = .991316 au 
 Jupiter MOID = 2.20357 au 
 T_jup = 3.334 
[ show covariance matrix ]

Ephemeris | Orbit Diagram | Orbital Elements | Mission Design | Physical Parameters | Discovery Circumstances | Close-Approach Data ]

Physical Parameter Table
Parameter Symbol Value Units Sigma Reference Notes
absolute magnitude H 16.5   n/a MPO454541  
diameter diameter 2.742 km 0.643 urn:nasa:pds:neowise_diameters_albedos::2.0[mainbelt] (http://adsabs.harvard.edu/abs/2011ApJ...741...68M)  
geometric albedo albedo 0.078   0.026 urn:nasa:pds:neowise_diameters_albedos::2.0[mainbelt] (http://adsabs.harvard.edu/abs/2011ApJ...741...68M)  

214606 (2006 RE19)          Discovered 2006-Sep-14 by CSS at Catalina
Reference: 20090509/Numbers.arcLast Updated: 2009-05-11

[ show close-approach data ]
Alternate Designations
 2006 RE19 = 2002 WV17 
Ephemeris | Orbit Diagram | Orbital Elements | Mission Design | Physical Parameters | Discovery Circumstances | Close-Approach Data ]
ABOUT SSD CREDITS/AWARDS PRIVACY/COPYRIGHT GLOSSARY LINKS
FirstGov 2019-Dec-05 15:57 UT
(server date/time)  
NASA Home Page
Site Manager:   Ryan S. Park
Webmaster  Alan B. Chamberlin